Location: Dodgeville, WI 53533, USA
(43.0344°N, 90.0900°W)
Time: 09:58:33
(UTC-06:00)

ISS - Visible Passes

Search period start: 24 January 2021 00:00
Search period end: 03 February 2021 00:00
Orbit: 418 x 421 km, 51.6° (Epoch: 24 January)

Date Brightness Start Highest point End Pass type
(mag) Time Alt. Az. Time Alt. Az. Time Alt. Az.
24 Jan -2.5 17:55:32 10° W 17:58:38 33° NNW 18:01:19 13° NE visible
24 Jan -0.8 19:33:41 10° NW 19:34:17 13° NW 19:34:17 13° NW visible
25 Jan -1.8 18:46:00 10° NW 18:48:35 20° N 18:48:51 19° N visible
26 Jan -1.9 17:58:17 10° WNW 18:01:00 22° NNW 18:03:25 11° NE visible
26 Jan -0.7 19:36:02 10° NW 19:36:23 12° NW 19:36:23 12° NW visible
27 Jan -1.8 18:48:32 10° NW 18:50:56 19° N 18:50:56 19° N visible
28 Jan -1.8 18:00:56 10° NW 18:03:25 19° N 18:05:30 12° NE visible
28 Jan -0.8 19:38:01 10° NW 19:38:28 13° NW 19:38:28 13° NW visible
29 Jan -2.1 18:50:38 10° NW 18:53:03 23° N 18:53:03 23° N visible
30 Jan -2.0 18:03:12 10° NW 18:05:48 20° N 18:07:40 14° NE visible
30 Jan -1.0 19:39:50 10° NW 19:40:38 16° NW 19:40:38 16° NW visible
31 Jan -2.8 18:52:28 10° NW 18:55:19 36° N 18:55:19 36° N visible
01 Feb -2.6 18:05:05 10° NW 18:08:05 28° NNE 18:10:04 16° ENE visible
01 Feb -1.2 19:41:45 10° WNW 19:43:04 21° WNW 19:43:04 21° WNW visible
02 Feb -3.9 18:54:16 10° NW 18:57:39 83° NNE 18:57:55 73° E visible
